Weather History for Missoula, MT

Change the Weather History Date:

Wednesday, January 2, 2013

  Actual Average Record
Temperature  
Mean Temperature 19 °F 24 °F  
Max Temperature 28 °F 31 °F 59 °F (1939)
Min Temperature 10 °F 16 °F -25 °F (1978)
Degree Days  
Heating Degree Days 46 41  
Month to date heating degree days 94 82  
Since 1 July heating degree days 2876 3254  
Cooling Degree Days 0 0  
Month to date cooling degree days 0 0  
Year to date cooling degree days 0 0  
Moisture  
Dew Point 12 °F    
Average Humidity 70    
Maximum Humidity 84    
Minimum Humidity 55    
Precipitation  
Precipitation 0.00 in 0.03 in 0.28 in (1894)
Month to date precipitation T 0.06  
Year to date precipitation T 0.06  
Snow  
Snow 0.00 in - - ()
Month to date snowfall T  
Year to date snowfall T  
Since 1 July snowfall 21.1  
Snow Depth 3.00 in    
Sea Level Pressure  
Sea Level Pressure 30.61 in    
Wind  
Wind Speed 3 mph (SE)    
Max Wind Speed 6 mph    
Max Gust Speed 7 mph    
Visibility 10 miles    
Events      
T = Trace of Precipitation, MM = Missing Value Source: NWS Daily Summary

Daily Weather History Graph

Daily Weather History Graph

Search for Another Location

Airport:

Trip Planner

Search our weather history database for the weather conditions in past years. The results will help you decide how hot, cold, wet, or windy it might be!

Date:

Astronomy

Jan. 02, 2013 Rise Set
Actual Time 8:21 AM MST 4:59 PM MST
Civil Twilight 7:46 AM MST 5:34 PM MST
Nautical Twilight 7:08 AM MST 6:13 PM MST
Astronomical Twilight 6:31 AM MST 6:50 PM MST
Moon 10:59 PM MST (1/2) 10:44 AM MST (1/2)
Length of Visible Light 9h 48m
Length of Day
8h 37m
Waning Gibbous, 74% of the Moon is Illuminated
Jan 2
Waning Gibbous
Jan 4
Last Quarter
Jan 11
New
Jan 18
First Quarter
Jan 26
Full

Hourly Weather History & Observations

Time (MST) Temp. Windchill Dew Point Humidity Pressure Visibility Wind Dir Wind Speed Gust Speed Precip Events Conditions
12:53 AM 21.9 °F 17.2 °F 14.0 °F 72% 30.61 in 10.0 mi ESE 3.5 mph - N/A   Overcast
2:53 AM 21.9 °F - 14.0 °F 72% 30.62 in 10.0 mi Calm Calm - N/A   Overcast
3:53 AM 19.9 °F 14.9 °F 14.0 °F 78% 30.61 in 10.0 mi ESE 3.5 mph - N/A   Unknown
4:20 AM 21.2 °F 16.4 °F 14.0 °F 74% 30.47 in 10.0 mi ESE 3.5 mph - N/A   Overcast
4:53 AM 21.0 °F - 14.0 °F 74% 30.61 in 10.0 mi Calm Calm - N/A   Overcast
5:53 AM 21.0 °F 14.6 °F 14.0 °F 74% 30.61 in 10.0 mi SSE 4.6 mph - N/A   Overcast
6:53 AM 21.0 °F 13.4 °F 14.0 °F 74% 30.62 in 10.0 mi SE 5.8 mph - N/A   Overcast
7:46 AM 21.2 °F 16.4 °F 12.2 °F 68% 30.49 in 10.0 mi ESE 3.5 mph - N/A   Overcast
7:53 AM 21.0 °F 16.2 °F 12.9 °F 71% 30.62 in 10.0 mi SE 3.5 mph - N/A   Overcast
8:53 AM 19.9 °F 11.1 °F 12.9 °F 74% 30.64 in 10.0 mi ESE 6.9 mph - N/A   Overcast
9:53 AM 21.0 °F 14.6 °F 12.9 °F 71% 30.65 in 10.0 mi SE 4.6 mph - N/A   Overcast
10:53 AM 21.0 °F 12.4 °F 14.0 °F 74% 30.66 in 10.0 mi South 6.9 mph - N/A   Overcast
11:53 AM 21.9 °F 14.5 °F 12.9 °F 68% 30.64 in 10.0 mi SSE 5.8 mph - N/A   Scattered Clouds
12:53 PM 23.0 °F 14.7 °F 12.9 °F 65% 30.62 in 10.0 mi SSE 6.9 mph - N/A   Clear
1:53 PM 24.1 °F - 12.0 °F 60% 30.61 in 10.0 mi Calm Calm - N/A   Clear
2:53 PM 26.1 °F - 12.0 °F 55% 30.60 in 10.0 mi Calm Calm - N/A   Clear
3:53 PM 25.0 °F - 12.0 °F 58% 30.60 in 10.0 mi Calm Calm - N/A   Clear
4:53 PM 19.9 °F 14.9 °F 12.0 °F 71% 30.62 in 10.0 mi WNW 3.5 mph - N/A   Clear
5:53 PM 17.1 °F 10.0 °F 10.0 °F 74% 30.63 in 10.0 mi NNW 4.6 mph - N/A   Clear
7:53 PM 14.0 °F 8.2 °F 8.1 °F 77% 30.63 in 10.0 mi NW 3.5 mph - N/A   Clear
8:53 PM 12.9 °F - 8.1 °F 81% 30.63 in 10.0 mi Calm Calm - N/A   Clear
9:53 PM 12.0 °F - 7.0 °F 80% 30.63 in 10.0 mi Calm Calm - N/A   Clear
10:53 PM 12.0 °F - 7.0 °F 80% 30.63 in 10.0 mi Calm Calm - N/A   Clear
11:53 PM 10.9 °F - 6.1 °F 81% 30.63 in 10.0 mi Calm Calm - N/A   Clear